• en France
  • Liste des pays
  • À 7 jours
  • Température de l'eau
  • Carte satellitaire
  • Carte météo
  • Widgets météo
  • user-avatar
    Se connecter

    Météo par heure à Horoda

    Ce jour, 22 Août, Mercredi

    Heure Température Précipitation Vent Pression Humidité
    00:00 +8°C° 0 mm 2 m/s 587 mmHg 66%
    01:00 +8°C° 0 mm 2 m/s 587 mmHg 65%
    02:00 +8°C° 0 mm 2 m/s 587 mmHg 63%
    03:00 +8°C° 0 mm 2 m/s 587 mmHg 64%
    04:00 +8°C° 0 mm 2 m/s 587 mmHg 64%
    05:00 +9°C° 0 mm 2 m/s 587 mmHg 65%
    06:00 +10°C° 0 mm 1 m/s 588 mmHg 65%
    07:00 +12°C° 0 mm 1 m/s 588 mmHg 60%
    08:00 +14°C° 0 mm 1 m/s 589 mmHg 55%
    09:00 +16°C° 0 mm 1 m/s 590 mmHg 50%
    10:00 +16°C° 0,1 mm 1 m/s 590 mmHg 49%
    11:00 +18°C° 0,1 mm 1 m/s 590 mmHg 48%
    12:00 +18°C° 0,1 mm 2 m/s 591 mmHg 48%
    13:00 +18°C° 0,2 mm 2 m/s 590 mmHg 50%
    14:00 +18°C° 0,2 mm 2 m/s 590 mmHg 52%
    15:00 +18°C° 0,2 mm 2 m/s 590 mmHg 54%
    16:00 +17°C° 0,3 mm 2 m/s 590 mmHg 61%
    17:00 +16°C° 0,3 mm 1 m/s 589 mmHg 68%
    18:00 +15°C° 0,3 mm 1 m/s 589 mmHg 74%
    19:00 +14°C° 0,1 mm 1 m/s 589 mmHg 77%
    20:00 +13°C° 0,1 mm 1 m/s 588 mmHg 81%
    21:00 +12°C° 0,1 mm 1 m/s 588 mmHg 84%
    22:00 +11°C° 0,1 mm 1 m/s 588 mmHg 85%
    23:00 +11°C° 0,1 mm 1 m/s 588 mmHg 85%

    Demain, 23 Août, Jeudi

    Heure Température Précipitation Vent Pression Humidité
    00:00 +10°C° 0,1 mm 1 m/s 588 mmHg 86%
    01:00 +10°C° 0 mm 1 m/s 588 mmHg 86%
    02:00 +10°C° 0 mm 1 m/s 588 mmHg 85%
    03:00 +9°C° 0 mm 1 m/s 587 mmHg 85%
    04:00 +9°C° 0 mm 1 m/s 588 mmHg 84%
    05:00 +10°C° 0 mm 1 m/s 588 mmHg 82%
    06:00 +10°C° 0 mm 1 m/s 588 mmHg 81%
    07:00 +12°C° 0 mm 1 m/s 589 mmHg 73%
    08:00 +14°C° 0 mm 1 m/s 590 mmHg 65%
    09:00 +16°C° 0 mm 1 m/s 591 mmHg 58%
    10:00 +18°C° 0,1 mm 1 m/s 591 mmHg 57%
    11:00 +17°C° 0,1 mm 2 m/s 592 mmHg 55%
    12:00 +18°C° 0,1 mm 2 m/s 592 mmHg 54%
    13:00 +18°C° 0,1 mm 2 m/s 591 mmHg 56%
    14:00 +17°C° 0,1 mm 2 m/s 591 mmHg 57%
    15:00 +17°C° 0,1 mm 2 m/s 591 mmHg 59%
    16:00 +16°C° 0 mm 1 m/s 591 mmHg 63%
    17:00 +15°C° 0 mm 1 m/s 590 mmHg 66%
    18:00 +15°C° 0 mm 1 m/s 590 mmHg 70%
    19:00 +13°C° 0 mm 1 m/s 590 mmHg 74%
    20:00 +12°C° 0 mm 1 m/s 590 mmHg 77%
    21:00 +11°C° 0 mm 1 m/s 589 mmHg 81%
    22:00 +10°C° 0 mm 1 m/s 589 mmHg 81%
    23:00 +10°C° 0 mm 1 m/s 589 mmHg 81%

    Après-demain, 24 Août, Vendredi

    Heure Température Précipitation Vent Pression Humidité
    00:00 +9°C° 0 mm 1 m/s 589 mmHg 81%
    01:00 +9°C° 0 mm 1 m/s 589 mmHg 80%
    02:00 +9°C° 0 mm 1 m/s 589 mmHg 79%
    03:00 +8°C° 0 mm 2 m/s 589 mmHg 78%
    04:00 +8°C° 0 mm 2 m/s 589 mmHg 77%
    05:00 +9°C° 0 mm 2 m/s 589 mmHg 76%
    06:00 +9°C° 0 mm 2 m/s 589 mmHg 76%
    07:00 +12°C° 0 mm 2 m/s 590 mmHg 68%
    08:00 +14°C° 0 mm 2 m/s 591 mmHg 61%
    09:00 +17°C° 0 mm 2 m/s 592 mmHg 54%
    10:00 +17°C° 0 mm 2 m/s 592 mmHg 53%
    11:00 +18°C° 0 mm 2 m/s 593 mmHg 52%
    12:00 +19°C° 0 mm 2 m/s 593 mmHg 50%
    13:00 +19°C° 0,1 mm 2 m/s 592 mmHg 52%
    14:00 +19°C° 0,1 mm 2 m/s 592 mmHg 53%
    15:00 +19°C° 0,1 mm 2 m/s 592 mmHg 55%
    16:00 +18°C° 0,2 mm 2 m/s 591 mmHg 60%
    17:00 +17°C° 0,2 mm 2 m/s 591 mmHg 65%
    18:00 +15°C° 0,2 mm 1 m/s 590 mmHg 70%
    19:00 +14°C° 0 mm 1 m/s 590 mmHg 71%
    20:00 +12°C° 0 mm 1 m/s 589 mmHg 72%
    21:00 +10°C° 0 mm 2 m/s 589 mmHg 73%
    22:00 +10°C° 0 mm 2 m/s 588 mmHg 72%
    23:00 +9°C° 0 mm 2 m/s 588 mmHg 71%

    25 Août, Samedi

    Heure Température Précipitation Vent Pression Humidité
    00:00 +9°C° 0 mm 2 m/s 588 mmHg 69%
    01:00 +9°C° 0 mm 2 m/s 588 mmHg 71%
    02:00 +9°C° 0 mm 2 m/s 587 mmHg 73%
    03:00 +8°C° 0 mm 2 m/s 587 mmHg 74%
    04:00 +9°C° 0 mm 2 m/s 587 mmHg 75%
    05:00 +9°C° 0 mm 2 m/s 587 mmHg 75%
    06:00 +9°C° 0 mm 2 m/s 587 mmHg 76%
    07:00 +13°C° 0 mm 2 m/s 589 mmHg 68%
    08:00 +15°C° 0 mm 1 m/s 590 mmHg 61%
    09:00 +19°C° 0 mm 1 m/s 591 mmHg 53%
    10:00 +19°C° 0,1 mm 2 m/s 591 mmHg 52%
    11:00 +20°C° 0,1 mm 2 m/s 591 mmHg 51%
    12:00 +20°C° 0,1 mm 2 m/s 591 mmHg 50%
    13:00 +20°C° 0,4 mm 2 m/s 591 mmHg 52%
    14:00 +20°C° 0,4 mm 2 m/s 590 mmHg 53%
    15:00 +20°C° 0,4 mm 2 m/s 590 mmHg 54%
    16:00 +19°C° 0,1 mm 2 m/s 589 mmHg 59%
    17:00 +18°C° 0,1 mm 1 m/s 589 mmHg 64%
    18:00 +16°C° 0,1 mm 1 m/s 589 mmHg 69%
    19:00 +15°C° 0 mm 1 m/s 588 mmHg 72%
    20:00 +13°C° 0 mm 1 m/s 588 mmHg 76%
    21:00 +12°C° 0 mm 1 m/s 587 mmHg 79%
    22:00 +12°C° 0 mm 1 m/s 587 mmHg 78%
    23:00 +11°C° 0 mm 1 m/s 587 mmHg 77%

    26 Août, Dimanche

    Heure Température Précipitation Vent Pression Humidité
    00:00 +11°C° 0 mm 1 m/s 587 mmHg 75%
    01:00 +11°C° 0 mm 1 m/s 586 mmHg 73%
    02:00 +10°C° 0 mm 1 m/s 586 mmHg 71%
    03:00 +10°C° 0 mm 1 m/s 586 mmHg 69%
    04:00 +10°C° 0 mm 1 m/s 586 mmHg 66%
    05:00 +11°C° 0 mm 1 m/s 586 mmHg 63%
    06:00 +11°C° 0 mm 1 m/s 586 mmHg 60%
    07:00 +13°C° 0 mm 1 m/s 587 mmHg 54%
    08:00 +16°C° 0 mm 1 m/s 588 mmHg 48%
    09:00 +19°C° 0 mm 1 m/s 590 mmHg 43%
    10:00 +19°C° 0 mm 2 m/s 590 mmHg 42%
    11:00 +20°C° 0 mm 2 m/s 590 mmHg 42%
    12:00 +21°C° 0 mm 2 m/s 590 mmHg 42%
    13:00 +21°C° 0 mm 2 m/s 590 mmHg 42%
    14:00 +21°C° 0 mm 2 m/s 589 mmHg 43%
    15:00 +21°C° 0 mm 2 m/s 589 mmHg 43%
    16:00 +19°C° 0 mm 2 m/s 588 mmHg 48%
    17:00 +18°C° 0 mm 2 m/s 588 mmHg 54%
    18:00 +16°C° 0 mm 1 m/s 587 mmHg 59%
    19:00 +15°C° 0 mm 1 m/s 587 mmHg 61%
    20:00 +13°C° 0 mm 1 m/s 586 mmHg 63%
    21:00 +12°C° 0 mm 1 m/s 586 mmHg 64%
    22:00 +11°C° 0 mm 1 m/s 586 mmHg 60%
    23:00 +11°C° 0 mm 1 m/s 585 mmHg 55%

    27 Août, Lundi

    Heure Température Précipitation Vent Pression Humidité
    00:00 +10°C° 0 mm 2 m/s 585 mmHg 51%
    01:00 +10°C° 0 mm 2 m/s 585 mmHg 50%
    02:00 +10°C° 0 mm 2 m/s 585 mmHg 49%
    03:00 +9°C° 0 mm 2 m/s 585 mmHg 48%
    04:00 +10°C° 0 mm 2 m/s 585 mmHg 50%
    05:00 +11°C° 0 mm 1 m/s 585 mmHg 53%
    06:00 +11°C° 0 mm 1 m/s 586 mmHg 56%
    07:00 +13°C° 0 mm 1 m/s 587 mmHg 52%
    08:00 +16°C° 0 mm 1 m/s 588 mmHg 48%
    09:00 +19°C° 0 mm 1 m/s 589 mmHg 45%
    10:00 +19°C° 0 mm 2 m/s 589 mmHg 45%
    11:00 +19°C° 0 mm 2 m/s 589 mmHg 45%
    12:00 +20°C° 0 mm 2 m/s 589 mmHg 45%
    13:00 +20°C° 0,5 mm 2 m/s 589 mmHg 47%
    14:00 +19°C° 0,5 mm 2 m/s 589 mmHg 49%
    15:00 +19°C° 0,5 mm 2 m/s 588 mmHg 51%
    16:00 +18°C° 0,3 mm 2 m/s 588 mmHg 56%
    17:00 +17°C° 0,3 mm 2 m/s 588 mmHg 62%
    18:00 +15°C° 0,3 mm 1 m/s 587 mmHg 67%
    19:00 +14°C° 0,1 mm 1 m/s 587 mmHg 71%
    20:00 +12°C° 0,1 mm 1 m/s 587 mmHg 76%
    21:00 +11°C° 0,1 mm 1 m/s 586 mmHg 80%
    22:00 +11°C° 0,1 mm 1 m/s 586 mmHg 79%
    23:00 +10°C° 0,1 mm 1 m/s 586 mmHg 79%
    Voir plus